{"data":{"norad_id":48334,"epoch":"2026-09-19T18:13:28.931232Z","epoch_age_seconds":97598,"freshness":"FRESH","line1":"1 48334U 21036BL  26262.75936263  .00001497  00000+0  59999-4 0  9998","line2":"2 48334  53.1582 277.8567 0001080  86.8399 273.2726 15.31693729297780","mean_motion":15.31693729,"eccentricity":0.000108,"inclination_deg":53.1582,"raan_deg":277.8567,"arg_perigee_deg":86.8399,"mean_anomaly_deg":273.2726,"bstar":5.9999e-5,"rev_number":29778,"period_min":94.013572866172,"perigee_km":470.01900807972,"apogee_km":471.4983695485,"semimajor_km":6848.8956888141,"source":"CELESTRAK","updated_at":"2026-09-20T09:00:38.938339Z"}}